TimeEDT,TemperatureF,Dew PointF,Humidity,Sea Level PressureIn,VisibilityMPH,Wind Direction,Wind SpeedMPH,Gust SpeedMPH,PrecipitationIn,Events,Conditions,WindDirDegrees,DateUTC
12:15 AM,53.6,51.8,94,30.22,7.0,Calm,Calm,-,N/A,,Clear,0,2013-05-01 04:15:00
12:35 AM,53.6,51.8,94,30.22,10.0,Calm,Calm,-,N/A,,Clear,0,2013-05-01 04:35:00
12:55 AM,55.4,51.8,88,30.22,10.0,Calm,Calm,-,N/A,,Clear,0,2013-05-01 04:55:00
1:15 AM,55.4,51.8,88,30.22,10.0,Calm,Calm,-,N/A,,Clear,0,2013-05-01 05:15:00
1:35 AM,55.4,51.8,88,30.22,10.0,Calm,Calm,-,N/A,,Clear,0,2013-05-01 05:35:00
1:55 AM,53.6,50.0,88,30.22,10.0,Calm,Calm,-,N/A,,Clear,0,2013-05-01 05:55:00
2:15 AM,51.8,50.0,94,30.22,10.0,Calm,Calm,-,N/A,,Clear,0,2013-05-01 06:15:00
2:35 AM,51.8,50.0,94,30.22,7.0,Calm,Calm,-,N/A,,Clear,0,2013-05-01 06:35:00
2:55 AM,51.8,50.0,94,30.22,10.0,North,3.5,-,N/A,,Clear,10,2013-05-01 06:55:00
3:15 AM,51.8,51.8,100,30.22,10.0,North,3.5,-,N/A,,Clear,10,2013-05-01 07:15:00
3:35 AM,53.6,51.8,94,30.22,10.0,North,3.5,-,N/A,,Clear,10,2013-05-01 07:35:00
3:55 AM,53.6,51.8,94,30.22,10.0,North,5.8,-,N/A,,Clear,10,2013-05-01 07:55:00
4:15 AM,53.6,51.8,94,30.22,10.0,North,4.6,-,N/A,,Clear,360,2013-05-01 08:15:00
4:35 AM,53.6,51.8,94,30.22,10.0,North,4.6,-,N/A,,Clear,10,2013-05-01 08:35:00
4:55 AM,53.6,51.8,94,30.22,10.0,North,3.5,-,N/A,,Clear,10,2013-05-01 08:55:00
5:15 AM,53.6,51.8,94,30.22,10.0,Calm,Calm,-,N/A,,Scattered Clouds,0,2013-05-01 09:15:00
5:35 AM,55.4,53.6,94,30.23,10.0,North,3.5,-,N/A,,Overcast,10,2013-05-01 09:35:00
5:55 AM,55.4,53.6,94,30.24,10.0,North,6.9,-,N/A,,Overcast,360,2013-05-01 09:55:00
6:15 AM,55.4,53.6,94,30.24,10.0,North,5.8,-,N/A,,Overcast,10,2013-05-01 10:15:00
6:35 AM,55.4,53.6,94,30.25,10.0,North,5.8,-,N/A,,Overcast,10,2013-05-01 10:35:00
6:55 AM,55.4,53.6,94,30.25,10.0,North,6.9,-,N/A,,Overcast,10,2013-05-01 10:55:00
7:15 AM,55.4,53.6,94,30.26,10.0,North,5.8,-,N/A,,Overcast,10,2013-05-01 11:15:00
7:35 AM,57.2,53.6,88,30.26,10.0,North,8.1,-,N/A,,Overcast,10,2013-05-01 11:35:00
7:55 AM,57.2,55.4,94,30.25,10.0,NNE,8.1,-,N/A,,Overcast,20,2013-05-01 11:55:00
8:55 AM,59.0,55.4,88,30.27,10.0,NNE,5.8,-,N/A,,Overcast,20,2013-05-01 12:55:00
9:55 AM,60.8,55.4,82,30.29,10.0,NNE,9.2,-,N/A,,Overcast,20,2013-05-01 13:55:00
10:55 AM,60.8,55.4,82,30.31,10.0,NE,6.9,-,N/A,,Overcast,50,2013-05-01 14:55:00
11:55 AM,62.6,53.6,72,30.32,10.0,NE,11.5,-,N/A,,Overcast,50,2013-05-01 15:55:00
12:55 PM,62.6,55.4,77,30.30,10.0,NNE,9.2,16.1,N/A,,Overcast,20,2013-05-01 16:55:00
1:55 PM,62.6,55.4,77,30.28,10.0,NE,11.5,17.3,N/A,,Overcast,50,2013-05-01 17:55:00
2:55 PM,64.4,55.4,73,30.18,10.0,ENE,12.7,-,N/A,,Overcast,70,2013-05-01 18:55:00
3:55 PM,64.4,55.4,73,30.28,10.0,ENE,5.8,-,N/A,,Overcast,60,2013-05-01 19:55:00
4:55 PM,62.6,55.4,77,30.28,10.0,ENE,3.5,-,N/A,,Overcast,60,2013-05-01 20:55:00
5:55 PM,62.6,55.4,77,30.28,10.0,NE,5.8,-,N/A,,Overcast,50,2013-05-01 21:55:00
6:55 PM,60.8,57.2,88,30.28,10.0,NE,5.8,-,N/A,,Overcast,50,2013-05-01 22:55:00
7:55 PM,60.8,57.2,88,30.29,10.0,NE,3.5,-,N/A,,Overcast,50,2013-05-01 23:55:00
8:55 PM,60.8,55.4,82,30.31,10.0,ENE,4.6,-,N/A,,Overcast,60,2013-05-02 00:55:00
9:35 PM,59.0,55.4,88,30.32,10.0,NE,4.6,-,N/A,,Overcast,50,2013-05-02 01:35:00
9:55 PM,59.0,55.4,88,30.32,10.0,NE,6.9,-,N/A,,Overcast,40,2013-05-02 01:55:00
10:35 PM,59.0,55.4,88,30.33,10.0,NE,6.9,-,N/A,,Overcast,40,2013-05-02 02:35:00
10:55 PM,59.0,53.6,82,30.33,10.0,NE,4.6,-,N/A,,Overcast,40,2013-05-02 02:55:00
11:15 PM,59.0,53.6,82,30.33,10.0,NE,5.8,-,N/A,,Overcast,40,2013-05-02 03:15:00
11:35 PM,59.0,53.6,82,30.33,10.0,NNE,4.6,-,N/A,,Overcast,30,2013-05-02 03:35:00
11:55 PM,57.2,53.6,88,30.33,10.0,NNE,5.8,-,N/A,Rain,Light Rain,30,2013-05-02 03:55:00